Starlink 1592

decayed
NORAD ID: 46139 Int'l Des: 2020-057 Owner: SPXS Country: US Constellation: starlink
LEOCIRCULAR
グループ

Starlink 1592について

説明を読み込み中...

高度履歴

Altitude vs Time

uPlot chart will show altitude changes over time

軌道要素

1 46139U 20057Y 21213.05145374 .14885519 12444-4 11462-2 0 9991
2 46139 53.0321 280.8007 0006010 341.5113 89.3621 16.39498705 53604
Epoch: Aug 1, 2021 • Age: 39599 hours

現在のステータス

Position data unavailable
打ち上げ日 Aug 18, 2020
運用期間 5.4 years
落下予定日 Aug 1, 2021
タイプ internet

技術仕様

分類 Payload
質量 260.00 kg
乾燥質量 248.00 kg
総質量 260.00 kg
長さ 0.20 m
直径 2.80 m
スパン 9.00 m
形状 Box + pan
製造者 SPXS
バスタイプ Starlink
フェーズステータス Unknown Transfer Status
所有者/国 SPXS/US

大規模コンステレーション

Loading constellations...